Regional Weather Roundup
Issued by NWS

Home | Current Version | Previous Version | Text Only | Print | Product List | Glossary On
Versions: 1 2 3 4 5 6 7 8 9 10 11 12 13 14 15 16 17 18 19 20 21 22 23 24 25 26 27 28 29 30 31 32 33 34 35 36 37 38 39 40 41 42 43 44 45 46 47 48 49 50
000
ASUS43 KLSX 251007
RWRMO

WEATHER SUMMARY FOR MISSOURI
NATIONAL WEATHER SERVICE SPRINGFIELD MO
500 AM CDT MON MAY 25 2015

NOTE: "FAIR" INDICATES FEW OR NO CLOUDS BELOW 12,000 FEET WITH NO
       SIGNIFICANT WEATHER AND/OR OBSTRUCTIONS TO VISIBILITY.
       CURRENT SKY AND/OR WEATHER CONDITIONS ARE NOT AVAILABLE FOR
       CHILLICOTHE AND FARMINGTON.

MOZ001>031-035>038-043-044-053-054-251100-
...NORTHERN AND WESTERN MISSOURI...

CITY           SKY/WX    TMP DP  RH WIND       PRES   REMARKS
KANSAS CTY INT CLOUDY    61  60  97 S9        29.87R
KANSAS C DTWN  MOCLDY    63  60  90 S6        29.86R
LEE`S SUMMIT   PTCLDY    61  59  93 S5        29.87F
ST JOSEPH      CLOUDY    63  61  93 S12       29.84R
CHILLICOTHE      N/A     64  62  93 S6        29.85S
KIRKSVILLE     RAIN      63  62  97 W9        29.84R FOG

$$
MOZ066>068-077>081-088>096-101>105-251100-
...SOUTHWEST MISSOURI...

CITY           SKY/WX    TMP DP  RH WIND       PRES   REMARKS
SPRINGFIELD    PTCLDY    61  59  93 S10       29.93R
JOPLIN         CLOUDY    63  61  93 S9        29.92R

$$
MOZ032>034-039>042-045>050-055>058-069>072-251100-
...CENTRAL MISSOURI...

CITY           SKY/WX    TMP DP  RH WIND       PRES   REMARKS
COLUMBIA       LGT RAIN  63  62  97 W14G23    29.90R FOG
JEFFERSON CITY CLOUDY    65  61  87 SW13      29.90R
ROLLA          CLOUDY    64  61  90 SW12      29.92R
SEDALIA        PTCLDY    62  60  93 SW9       29.90R
WHITEMAN AFB   MOCLDY    61  61 100 SW8       29.88R
WARRENSBURG    CLOUDY    61  59  94 SW6       29.89R
OSAGE BEACH    CLOUDY    63  61  94 SW5       29.93R

$$
MOZ051-052-059>065-251100-
...EAST CENTRAL MISSOURI...

CITY           SKY/WX    TMP DP  RH WIND       PRES   REMARKS
ST LOUIS INTL  CLOUDY    71  65  81 S12       29.90R
SPIRIT OF STL  CLOUDY    69  66  90 S7        29.88R
ST CHARLES     CLOUDY    69  66  90 S13       29.88R

$$
MOZ072>076-082>087-097>100-106>115-251100-
...SOUTH CENTRAL AND SOUTHEAST MISSOURI...

CITY           SKY/WX    TMP DP  RH WIND       PRES   REMARKS
CAPE GIRARDEAU CLOUDY    69  67  93 S14G22    30.00R
FARMINGTON     CLOUDY    66  64  94 S14       30.00R
POPLAR BLUFF   CLOUDY    69  66  90 S10       29.98R
WEST PLAINS    CLOUDY    68  65  90 S6        29.98R

$$



USA.gov is the U.S. government's official web portal to all federal, state and local government web resources and services.